SCP
0 0 0 0 0 0 1 1 1 2 2 1 1 1 1 1 1 1 1 1 1 1 1 1 1 1 1 1 1 1 1 1 1 1 1 1 1 1 1 1 1 1 1
0 0 0 0 0 0 1 1 1 1 1 1 1 1 1 1 1 1 1 1 1 1 1 1 1 1 1 1 1 1 1 1 1 1 1 0 1 1 1 1 1 1 1
0 0 0 0 0 0 1 1 1 1 1 1 1 1 1 1 1 1 1 1 1 1 1 1 1 1 1 1 1 1 1 1 1 1 0 0 0 1 1 1 1 1 1
0 0 0 0 0 0 1 1 1 1 1 1 1 1 1 1 1 1 1 1 1 1 1 1 1 2 2 2 2 1 1 1 1 1 0 0 0 1 1 1 0 0 0
0 0 0 0 0 0 1 1 1 1 1 1 1 1 1 1 1 1 1 1 1 1 1 1 2 2 2 2 2 1 1 1 1 0 0 1 1 1 1 0 0 0 0
0 0 0 0 1 1 1 1 1 1 1 1 1 1 1 1 1 1 1 1 1 1 1 1 2 2 2 2 2 1 1 1 0 0 0 1 1 1 1 1 1 0 0
0 0 0 0 1 1 1 1 0 0 0 1 1 1 1 1 1 1 1 1 1 1 1 2 2 2 2 2 2 1 1 1 0 0 0 0 1 1 1 1 1 1 1
0 0 0 1 1 1 1 0 1 1 1 1 1 1 1 1 1 1 1 1 1 1 1 2 2 2 2 1 1 1 1 1 0 0 0 0 1 1 1 1 1 1 1
0 0 0 0 1 1 0 0 1 1 1 1 1 1 1 1 1 1 1 1 1 1 1 2 2 2 1 1 1 1 1 1 0 0 0 1 1 1 1 1 1 1 1
0 0 0 0 0 0 0 1 1 1 1 1 1 1 1 1 1 0 1 1 1 1 2 2 2 2 1 1 1 1 1 1 0 0 0 1 1 1 1 1 1 1 1
0 0 0 0 0 0 0 1 1 1 1 1 1 1 1 0 0 0 0 1 1 1 1 1 1 1 1 1 1 1 1 0 0 0 0 1 1 1 1 1 1 1 1
1 1 0 0 0 0 0 0 1 0 0 0 0 0 0 0 0 0 0 0 1 1 1 1 1 1 1 1 1 1 0 0 0 0 0 1 1 1 1 1 1 1 1
1 1 0 0 0 0 0 0 0 0 0 0 0 0 0 0 0 0 0 0 0 0 0 0 0 0 0 0 0 0 0 0 0 0 0 1 1 1 1 1 1 1 1
1 0 0 0 0 0 0 0 0 0 0 0 0 0 0 0 0 0 0 0 0 0 0 0 0 0 0 0 0 0 0 0 0 0 0 1 1 1 1 1 1 1 1
0 0 0 0 0 0 0 0 0 0 0 0 0 0 0 0 0 0 0 0 0 0 0 0 0 0 0 0 0 0 0 0 0 0 0 0 1 1 1 1 1 1 1
0 0 0 0 0 0 0 0 0 0 0 0 0 0 0 0 0 0 0 0 0 0 0 0 0 0 0 0 0 0 0 0 0 0 0 0 1 1 1 1 1 1 1
0 0 0 0 0 0 0 0 0 0 0 0 0 0 0 0 0 0 0 0 0 0 0 0 0 0 0 0 0 0 0 0 0 0 0 0 0 1 1 1 1 1 1
0 0 0 0 0 0 0 0 0 0 0 0 0 0 0 0 0 0 0 0 0 0 0 0 0 0 0 0 0 0 0 0 0 0 0 0 0 0 1 1 1 1 1
0 0 0 0 0 0 0 0 0 0 0 0 0 0 0 0 0 0 0 0 0 0 0 0 0 0 0 0 0 0 0 0 0 0 0 0 0 0 0 1 1 1 1
0 0 0 0 0 0 0 0 0 0 0 0 0 0 0 0 0 0 0 0 0 0 0 0 0 0 0 0 0 0 0 0 0 0 0 0 0 0 0 1 1 1 1
0 0 0 0 0 0 0 0 0 0 0 0 0 0 0 0 0 0 0 0 0 0 0 0 0 0 0 0 0 0 0 0 0 0 0 0 0 0 0 1 1 0 0
0 0 0 0 0 0 0 0 0 0 0 0 0 0 0 0 0 0 0 0 0 0 0 0 0 0 0 0 0 0 0 0 0 0 0 0 0 0 0 0 0 0 0
1 0 0 0 0 0 0 0 0 0 0 0 0 0 0 0 0 0 0 0 0 0 0 0 0 0 0 0 0 0 0 0 0 0 0 0 0 0 0 0 0 0 0
1 1 1 1 0 0 0 0 0 0 0 0 0 0 0 0 0 0 0 0 0 0 0 0 0 0 0 0 0 0 0 0 0 0 0 0 0 0 0 0 0 0 0
1 1 1 1 1 1 1 1 0 0 0 0 0 0 0 0 0 0 0 0 0 0 0 0 0 0 0 0 0 0 0 0 0 0 0 0 0 0 0 0 0 0 0
1 1 1 1 1 1 1 1 0 0 0 0 0 0 0 0 0 0 0 0 0 0 0 0 0 0 0 0 0 0 0 0 0 0 0 0 0 0 0 0 0 0 0
Wind_Speed
0 0 5 7 8 8 9 10 10 10 10 10 10 10 10 11 10 11 11 11 11 11 11 10 10 9 9 9 9 9 9 9 9 9 8 8 7 8 8 7 6 3 7
3 2 6 7 8 9 9 9 10 10 10 10 10 10 10 10 10 10 10 11 11 11 10 9 9 9 9 9 9 9 9 9 9 9 9 8 8 8 7 7 7 4 7
4 3 4 7 8 9 9 9 9 10 10 10 10 9 10 10 10 10 10 10 11 10 10 9 9 9 9 9 9 9 10 9 9 9 8 4 5 7 7 7 7 6 6
5 3 5 7 9 9 9 9 9 10 10 10 10 9 10 9 9 10 10 10 10 10 9 9 9 9 9 9 9 9 10 10 9 8 4 3 3 7 8 8 7 7 6
5 3 5 8 9 9 9 9 9 9 9 10 10 10 10 10 9 9 9 10 10 9 9 9 9 9 9 9 9 9 10 10 10 7 4 3 3 6 7 7 7 6 6
4 3 4 8 9 8 8 8 9 9 9 9 10 10 10 10 10 9 9 9 9 9 9 9 9 9 8 8 9 9 10 10 8 4 4 3 2 6 7 7 7 6 5
4 3 4 7 8 8 8 8 8 8 9 9 10 10 10 9 9 9 9 8 8 8 8 8 8 8 8 8 9 9 10 10 6 4 3 3 3 6 7 7 7 6 5
6 4 3 7 7 7 8 8 8 8 8 9 9 9 9 9 8 8 8 8 8 8 8 8 8 8 8 9 9 9 9 9 6 4 3 2 5 7 8 8 8 7 6
5 4 3 2 4 6 7 6 7 7 8 8 8 9 9 9 8 8 7 7 7 7 7 7 7 7 8 8 9 9 9 9 4 2 3 2 6 8 8 9 8 8 7
4 4 3 2 2 2 3 5 6 7 7 8 8 8 9 8 8 8 7 8 7 7 7 7 7 7 7 8 9 9 9 7 4 3 2 3 7 8 9 9 8 8 8
4 3 3 2 2 2 2 3 4 5 6 6 5 7 6 4 4 4 6 7 8 7 7 8 8 8 7 7 8 9 7 3 3 2 2 5 7 8 8 8 8 8 8
3 3 2 2 2 2 2 2 2 3 3 3 3 4 3 3 3 5 6 8 8 8 8 8 9 8 6 4 5 6 3 3 3 2 2 6 7 7 8 8 8 8 8
4 4 3 2 2 2 2 2 1 2 2 2 3 3 3 3 3 3 2 4 4 5 4 5 5 4 3 3 3 3 3 3 2 2 3 6 6 7 7 7 7 7 8
4 4 3 3 2 2 2 2 2 2 1 2 2 3 3 2 2 2 2 2 2 2 3 3 2 4 4 4 4 3 3 2 2 2 2 5 6 6 6 7 7 7 7
4 4 4 4 3 3 2 2 2 2 2 2 2 2 3 2 2 2 2 2 2 2 2 3 3 4 4 4 4 4 3 3 3 2 2 5 6 6 6 6 6 6 6
4 4 4 4 3 3 2 2 2 2 2 2 2 2 3 2 2 2 2 2 2 2 2 2 3 3 2 3 3 3 3 2 2 2 2 3 5 6 5 5 5 6 6
5 4 4 5 4 4 3 3 2 2 2 2 2 2 3 2 2 2 2 2 2 2 3 3 3 3 3 3 3 3 2 2 2 2 2 2 3 5 6 6 6 5 5
5 5 5 5 4 4 3 2 2 2 2 2 2 2 3 3 3 2 2 2 2 2 2 2 3 3 3 2 2 2 2 2 2 2 2 2 2 2 4 6 6 6 6
6 6 5 4 4 4 4 3 2 2 2 2 2 2 2 3 3 3 2 2 2 2 2 2 2 2 2 2 1 2 2 2 1 2 2 2 2 2 2 4 5 5 5
6 5 5 5 4 4 3 3 2 2 2 2 2 2 2 2 3 3 2 2 2 2 2 2 2 2 1 1 2 2 2 2 2 2 2 2 2 2 2 3 3 3 5
5 4 4 5 4 4 3 2 2 1 1 1 1 2 2 2 2 3 2 2 2 2 2 2 2 2 2 2 2 3 3 3 2 2 2 2 2 2 2 2 2 2 2
6 5 4 5 4 4 3 3 2 2 1 1 0 1 2 2 2 2 2 2 2 2 3 2 2 2 2 2 2 2 3 4 3 3 2 2 2 2 2 2 1 1 1
6 6 6 5 5 4 4 3 2 2 2 2 2 1 1 1 2 2 2 2 2 2 1 1 1 2 1 1 1 2 2 1 3 3 2 2 2 2 2 2 2 1 1
7 6 6 5 5 4 5 4 5 3 2 1 1 0 0 1 1 1 1 2 1 1 1 0 1 1 1 0 1 1 1 2 1 2 3 2 2 2 2 2 2 1 1
7 6 6 5 4 4 5 5 5 3 2 1 0 1 1 1 1 1 1 1 1 1 0 0 1 1 1 1 0 0 1 1 1 1 2 3 3 2 2 2 1 1 1
6 5 5 5 4 5 5 5 5 4 3 2 1 1 0 1 1 0 1 1 0 0 0 0 0 0 0 0 0 0 1 1 1 1 1 2 2 3 2 2 1 1 1
Wind_Direction
25 47 82 79 78 76 75 74 70 68 68 68 71 73 75 77 78 81 84 84 84 82 80 77 76 76 75 73 71 70 69 68 64 62 59 61 77 82 80 76 71 65 78
141 113 88 86 83 80 78 76 72 70 69 69 70 73 75 77 77 79 83 84 82 81 79 78 75 75 74 71 68 68 68 65 62 59 59 58 68 74 78 76 71 69 76
112 98 90 89 88 86 82 76 73 73 72 71 71 72 74 76 78 78 82 84 83 81 78 74 71 70 70 68 67 68 65 61 59 58 55 49 66 75 77 73 70 68 72
114 101 95 91 91 87 84 79 76 74 71 70 71 73 74 76 79 80 83 83 82 81 78 72 68 66 65 63 64 66 62 60 60 59 49 41 55 76 75 70 66 64 64
107 101 103 97 93 87 83 84 83 79 73 70 73 74 74 74 77 80 83 83 81 80 77 73 68 64 62 61 63 64 61 59 59 54 45 40 43 71 70 67 62 59 61
109 101 108 104 98 91 86 86 85 84 79 75 75 75 75 75 77 80 84 86 85 82 77 74 71 66 64 63 63 63 61 62 55 47 41 38 49 70 68 66 62 58 59
120 110 110 105 102 96 91 87 84 84 82 79 77 75 75 77 78 81 83 85 86 84 79 74 71 68 65 64 66 64 63 64 56 46 34 31 57 68 65 61 58 58 63
124 112 103 104 99 94 91 90 88 83 80 79 79 76 72 71 76 83 85 86 84 83 80 74 70 67 63 66 67 65 62 62 59 51 35 33 63 67 66 61 55 51 66
112 104 87 86 89 91 91 88 85 82 81 79 77 75 70 66 72 79 85 87 85 81 78 75 69 66 63 64 65 64 62 60 51 38 52 38 59 65 67 64 55 55 70
104 100 93 74 69 72 81 83 80 79 77 73 70 68 67 64 67 71 78 80 82 80 74 69 63 60 63 66 64 65 64 58 44 37 29 51 60 63 65 64 57 54 68
100 91 95 83 69 68 79 78 72 76 70 63 62 60 58 53 51 56 65 75 75 73 67 57 52 53 58 59 63 63 58 52 42 35 37 65 66 63 62 63 60 57 59
124 125 110 108 101 88 87 71 47 56 51 50 47 50 52 52 51 55 49 61 62 60 53 46 44 47 51 46 58 59 54 49 50 38 51 67 68 65 62 63 63 62 61
145 125 116 114 108 98 86 87 59 52 52 51 53 58 59 54 50 50 44 39 38 41 36 33 34 35 42 49 51 52 51 46 47 35 45 65 66 64 63 63 64 65 66
131 126 128 122 111 99 101 105 91 77 60 54 52 61 67 60 50 47 44 32 32 30 30 32 40 40 44 51 60 61 52 51 48 32 40 58 60 59 60 63 64 64 66
135 135 139 127 118 106 98 95 90 89 83 75 63 59 69 75 66 54 38 36 32 32 40 43 50 52 50 50 56 63 56 49 46 36 29 52 53 53 55 61 62 60 63
147 144 141 132 123 109 106 104 97 92 85 78 67 66 73 73 71 73 60 43 34 33 44 55 57 59 54 55 52 52 54 49 46 36 30 37 44 45 46 53 59 56 55
157 144 139 138 119 109 108 115 106 97 89 80 69 63 70 76 77 73 69 52 37 48 54 57 51 50 47 48 45 42 48 48 48 45 37 26 26 37 41 43 47 54 56
150 139 140 139 124 116 112 108 102 96 93 85 76 69 69 70 70 71 63 47 37 53 57 60 55 50 35 32 28 26 30 36 37 42 40 33 24 26 29 36 41 46 51
156 151 138 133 132 127 120 107 103 100 93 86 75 66 58 64 64 70 62 46 42 54 50 54 53 65 44 21 21 36 17 24 26 43 38 33 25 23 20 25 35 40 44
151 152 145 140 140 126 111 90 77 72 69 67 73 72 66 61 65 71 68 52 53 59 44 46 51 37 44 24 35 33 7 3 21 38 37 32 19 15 19 23 24 24 31
135 137 142 140 140 128 118 112 102 87 64 57 73 84 74 67 70 78 71 59 51 59 49 56 67 44 24 26 49 17 2 10 28 21 19 24 12 3 16 15 13 15 8
151 153 148 149 149 150 148 149 146 141 134 123 82 61 70 80 80 81 79 69 59 59 46 48 66 60 20 32 77 63 8 350 350 358 357 4 358 6 9 3 2 15 353
164 168 163 167 159 152 138 116 92 68 50 40 33 32 24 89 85 78 91 89 74 76 69 36 68 95 54 351 58 118 123 255 309 324 339 351 353 355 342 340 356 350 337
177 172 164 166 162 157 146 137 135 135 154 203 201 181 356 60 81 91 94 88 90 83 85 2 55 94 111 347 335 26 162 173 170 308 324 334 336 331 323 339 347 336 336
174 169 164 159 158 158 156 155 150 145 164 162 112 94 41 14 39 95 101 93 79 68 41 29 31 52 108 156 201 301 39 45 121 158 295 318 330 313 305 300 314 327 319
166 162 157 156 161 162 163 165 161 160 158 144 144 145 349 330 325 22 94 94 88 48 329 271 125 132 136 135 179 167 162 163 217 181 227 278 295 302 308 307 319 318 308